C/2020 K7 ( PanSTARRS )

Japanese version
Home page
Updated on October 9, 2020

---------------------------------------------------------------------

* Profile

Discovery Date May 30, 2020
Magnitude 20.2 mag
Discoverer Pan-STARRS 1 telescope (Haleakala)

* Pictures

* Orbital Elements

Epoch 2019 Nov. 13.0 TT = JDT 2458800.5
T 2019 Oct. 27.54419 TT                                 Rudenko
q   6.3824840            (2000.0)            P               Q
z  +0.0082102      Peri.  357.99725     +0.24888835     +0.82343237
 +/-0.0000000      Node   286.11184     -0.88106965     -0.02614239
e   0.9475983      Incl.   32.05701     -0.40220749     +0.56681188
From 67 observations 2020 May 30-Aug. 17, mean residual 0".5.

* Magnitudes Graph

        m1 = 7.5 + 5 log d + 10.0 log r

---------------------------------------------------------------------

The orbital elements are published on M.P.E.C. 2020-S188.
The magnitudes graphs are made with Comet for Windows.

---------------------------------------------------------------------

Copyright(C) Seiichi Yoshida (comet@aerith.net). All rights reserved.